| time (UTC) | temp F | wind direction | speed knots | gust knots | rain 1hr in | rain 24hr in | rain mn in | humidity % | barometer mb |
| 20260906152955 | 74 | 137 | 3.5 | 7.0 | 0.00 | 0.00 | 0.00 | 77 | 1023.4 |
| 20260906152455 | 74 | 51 | 0.0 | 7.0 | 0.00 | 0.00 | 0.00 | 79 | 1023.4 |
| 20260906151956 | 73 | 56 | 3.5 | 6.1 | 0.00 | 0.00 | 0.00 | 79 | 1023.4 |
| 20260906151455 | 72 | 129 | 3.5 | 8.7 | 0.00 | 0.00 | 0.00 | 81 | 1023.4 |
| 20260906150955 | 72 | 75 | 4.3 | 8.7 | 0.00 | 0.00 | 0.00 | 84 | 1023.4 |
| 20260906150456 | 72 | 41 | 0.9 | 4.3 | 0.00 | 0.00 | 0.00 | 85 | 1023.4 |
| 20260906145955 | 71 | 64 | 0.9 | 6.1 | 0.00 | 0.00 | 0.00 | 85 | 1023.4 |
| 20260906145456 | 71 | 48 | 0.9 | 7.8 | 0.00 | 0.00 | 0.00 | 85 | 1023.4 |
| 20260906144956 | 71 | 53 | 0.9 | 6.1 | 0.00 | 0.00 | 0.00 | 87 | 1023.4 |
| 20260906144456 | 70 | 25 | 1.7 | 5.2 | 0.00 | 0.00 | 0.00 | 88 | 1023.4 |
| 20260906143955 | 70 | 61 | 1.7 | 6.1 | 0.00 | 0.00 | 0.00 | 90 | 1023.0 |
| 20260906143455 | 69 | 119 | 2.6 | 7.0 | 0.00 | 0.00 | 0.00 | 90 | 1023.4 |
| 20260906142956 | 69 | 84 | 3.5 | 7.8 | 0.00 | 0.00 | 0.00 | 90 | 1023.4 |
| 20260906142455 | 68 | 9 | 4.3 | 6.1 | 0.00 | 0.00 | 0.00 | 93 | 1023.0 |
| 20260906141955 | 67 | 35 | 0.0 | 0.0 | 0.00 | 0.00 | 0.00 | 97 | 1023.0 |
| 20260906141456 | 66 | 56 | 0.0 | 0.0 | 0.00 | 0.00 | 0.00 | 99 | 1023.0 |
| 20260906140956 | 65 | 82 | 0.0 | 0.0 | 0.00 | 0.00 | 0.00 | 100 | 1023.0 |
| 20260906140457 | 64 | 45 | 0.0 | 0.0 | 0.00 | 0.00 | 0.00 | 100 | 1023.4 |
| 20260906135955 | 64 | 57 | 0.9 | 6.1 | 0.00 | 0.00 | 0.00 | 100 | 1023.4 |
| 20260906135455 | 63 | 103 | 3.5 | 7.0 | 0.00 | 0.00 | 0.00 | 100 | 1023.4 |
| 20260906134956 | 63 | 58 | 3.5 | 6.1 | 0.00 | 0.00 | 0.00 | 100 | 1023.4 |
| 20260906134455 | 63 | 55 | 2.6 | 6.1 | 0.00 | 0.00 | 0.00 | 100 | 1023.0 |
| 20260906133955 | 63 | 110 | 3.5 | 6.1 | 0.00 | 0.00 | 0.00 | 100 | 1023.0 |
| 20260906133455 | 63 | 33 | 3.5 | 6.1 | 0.00 | 0.00 | 0.00 | 100 | 1023.0 |
| 20260906132957 | 62 | 54 | 2.6 | 5.2 | 0.00 | 0.00 | 0.00 | 100 | 1023.0 |
| 20260906132455 | 62 | 131 | 2.6 | 6.1 | 0.00 | 0.00 | 0.00 | 100 | 1023.0 |
| 20260906131955 | 62 | 39 | 3.5 | 6.1 | 0.00 | 0.00 | 0.00 | 100 | 1023.0 |
| 20260906131455 | 62 | 26 | 3.5 | 7.0 | 0.00 | 0.00 | 0.00 | 100 | 1023.0 |
| 20260906130956 | 62 | 55 | 1.7 | 3.5 | 0.00 | 0.00 | 0.00 | 100 | 1023.0 |
| 20260906130457 | 61 | 69 | 0.9 | 4.3 | 0.00 | 0.00 | 0.00 | 100 | 1023.4 |
| 20260906125955 | 61 | 52 | 2.6 | 5.2 | 0.00 | 0.00 | 0.00 | 100 | 1023.0 |
| 20260906125455 | 61 | 40 | 2.6 | 3.5 | 0.00 | 0.00 | 0.00 | 100 | 1023.0 |
| 20260906124955 | 61 | 110 | 1.7 | 2.6 | 0.00 | 0.00 | 0.00 | 100 | 1023.0 |
| 20260906124455 | 60 | 60 | 0.0 | 1.7 | 0.00 | 0.00 | 0.00 | 100 | 1023.0 |
| 20260906123955 | 60 | 74 | 0.9 | 1.7 | 0.00 | 0.00 | 0.00 | 100 | 1022.7 |
| 20260906123455 | 60 | 118 | 0.0 | 0.9 | 0.00 | 0.00 | 0.00 | 100 | 1022.7 |
| 20260906122956 | 59 | 135 | 0.0 | 0.9 | 0.00 | 0.00 | 0.00 | 100 | 1022.7 |
| 20260906122455 | 59 | 93 | 0.0 | 1.7 | 0.00 | 0.00 | 0.00 | 100 | 1022.7 |
| 20260906121956 | 59 | 43 | 0.0 | 1.7 | 0.00 | 0.00 | 0.00 | 100 | 1022.7 |
| 20260906121456 | 59 | 292 | 0.9 | 3.5 | 0.00 | 0.00 | 0.00 | 100 | 1022.7 |
| 20260906120957 | 58 | 48 | 0.9 | 1.7 | 0.00 | 0.00 | 0.00 | 100 | 1022.7 |
| 20260906120455 | 57 | 7 | 0.9 | 1.7 | 0.00 | 0.00 | 0.00 | 100 | 1022.7 |
| 20260906115956 | 57 | 69 | 0.0 | 0.0 | 0.00 | 0.00 | 0.00 | 100 | 1022.7 |
| 20260906115456 | 56 | 52 | 0.0 | 0.9 | 0.00 | 0.00 | 0.00 | 100 | 1022.7 |
| 20260906114956 | 56 | 88 | 0.0 | 0.0 | 0.00 | 0.00 | 0.00 | 100 | 1022.7 |
| 20260906114455 | 57 | 76 | 0.0 | 0.0 | 0.00 | 0.00 | 0.00 | 100 | 1022.7 |
| 20260906113955 | 57 | 76 | 0.0 | 0.0 | 0.00 | 0.00 | 0.00 | 100 | 1022.7 |
| 20260906113455 | 57 | 66 | 0.0 | 0.0 | 0.00 | 0.00 | 0.00 | 100 | 1022.7 |
| 20260906112955 | 57 | 51 | 0.0 | 0.0 | 0.00 | 0.00 | 0.00 | 100 | 1022.7 |
| 20260906112455 | 57 | 74 | 0.0 | 1.7 | 0.00 | 0.00 | 0.00 | 100 | 1022.7 |
| 20260906111956 | 57 | 60 | 1.7 | 2.6 | 0.00 | 0.00 | 0.00 | 100 | 1022.7 |
| 20260906111455 | 57 | 42 | 0.0 | 0.9 | 0.00 | 0.00 | 0.00 | 100 | 1022.4 |
| 20260906110955 | 57 | 70 | 0.0 | 0.0 | 0.00 | 0.00 | 0.00 | 100 | 1022.4 |
| 20260906110455 | 58 | 67 | 0.0 | 0.0 | 0.00 | 0.00 | 0.00 | 100 | 1022.4 |
| 20260906105955 | 58 | 48 | 0.0 | 1.7 | 0.00 | 0.00 | 0.00 | 100 | 1022.4 |
| 20260906105459 | 58 | 45 | 0.9 | 1.7 | 0.00 | 0.00 | 0.00 | 100 | 1022.0 |
| 20260906104955 | 58 | 50 | 0.0 | 0.0 | 0.00 | 0.00 | 0.00 | 100 | 1022.0 |
| 20260906104456 | 58 | 46 | 0.0 | 0.0 | 0.00 | 0.00 | 0.00 | 100 | 1022.0 |
| 20260906103955 | 58 | 52 | 0.0 | 0.0 | 0.00 | 0.00 | 0.00 | 100 | 1022.0 |
| 20260906103455 | 58 | 50 | 0.0 | 0.0 | 0.00 | 0.00 | 0.00 | 100 | 1022.0 |
| 20260906102955 | 58 | 53 | 0.0 | 0.0 | 0.00 | 0.00 | 0.00 | 100 | 1022.0 |
| 20260906102455 | 59 | 46 | 0.0 | 0.0 | 0.00 | 0.00 | 0.00 | 100 | 1022.0 |
| 20260906101955 | 59 | 71 | 0.0 | 0.0 | 0.00 | 0.00 | 0.00 | 100 | 1021.7 |
| 20260906101455 | 59 | 68 | 0.0 | 0.0 | 0.00 | 0.00 | 0.00 | 100 | 1021.7 |
| 20260906100958 | 60 | 63 | 0.0 | 0.0 | 0.00 | 0.00 | 0.00 | 100 | 1021.7 |
| 20260906100456 | 60 | 18 | 0.0 | 0.0 | 0.00 | 0.00 | 0.00 | 100 | 1021.7 |
| 20260906095955 | 61 | 43 | 0.0 | 0.0 | 0.00 | 0.00 | 0.00 | 100 | 1021.7 |
| 20260906095455 | 61 | 1 | 0.0 | 3.5 | 0.00 | 0.00 | 0.00 | 100 | 1021.3 |
| 20260906094956 | 60 | 26 | 1.7 | 2.6 | 0.00 | 0.00 | 0.00 | 100 | 1021.3 |
| 20260906094456 | 60 | 55 | 0.0 | 3.5 | 0.00 | 0.00 | 0.00 | 100 | 1021.3 |
| 20260906093955 | 61 | 63 | 0.9 | 3.5 | 0.00 | 0.00 | 0.00 | 100 | 1021.3 |
| 20260906093456 | 61 | 57 | 0.0 | 0.0 | 0.00 | 0.00 | 0.00 | 100 | 1021.3 |
| 20260906092955 | 61 | 42 | 0.0 | 0.0 | 0.00 | 0.00 | 0.00 | 100 | 1021.3 |
| 20260906092455 | 61 | 68 | 0.0 | 0.0 | 0.00 | 0.00 | 0.00 | 100 | 1021.7 |
| 20260906091955 | 61 | 57 | 0.0 | 0.0 | 0.00 | 0.00 | 0.00 | 100 | 1021.7 |
| 20260906091455 | 62 | 49 | 0.0 | 0.0 | 0.00 | 0.00 | 0.00 | 100 | 1022.0 |
| 20260906090955 | 62 | 53 | 0.0 | 0.0 | 0.00 | 0.00 | 0.00 | 100 | 1022.0 |
| 20260906090455 | 62 | 75 | 0.0 | 0.0 | 0.00 | 0.00 | 0.00 | 100 | 1021.7 |
| 20260906085956 | 62 | 63 | 0.0 | 0.0 | 0.00 | 0.00 | 0.00 | 100 | 1021.7 |
| 20260906085456 | 62 | 70 | 0.0 | 0.0 | 0.00 | 0.00 | 0.00 | 100 | 1021.7 |
| 20260906084955 | 63 | 62 | 0.0 | 0.0 | 0.00 | 0.00 | 0.00 | 100 | 1022.0 |
| 20260906084455 | 63 | 58 | 0.0 | 0.0 | 0.00 | 0.00 | 0.00 | 100 | 1022.0 |
| 20260906083958 | 63 | 47 | 0.0 | 0.0 | 0.00 | 0.00 | 0.00 | 100 | 1022.0 |
| 20260906083456 | 63 | 48 | 0.0 | 0.0 | 0.00 | 0.00 | 0.00 | 100 | 1022.0 |
| 20260906082955 | 63 | 15 | 0.0 | 2.6 | 0.00 | 0.00 | 0.00 | 100 | 1022.0 |
| 20260906082455 | 63 | 50 | 0.9 | 2.6 | 0.00 | 0.00 | 0.00 | 100 | 1021.7 |
| 20260906081955 | 63 | 58 | 0.0 | 2.6 | 0.00 | 0.00 | 0.00 | 100 | 1021.7 |
| 20260906081455 | 62 | 49 | 1.7 | 2.6 | 0.00 | 0.00 | 0.00 | 100 | 1021.7 |
| 20260906080956 | 62 | 14 | 0.0 | 0.0 | 0.00 | 0.00 | 0.00 | 100 | 1021.7 |
| 20260906080455 | 62 | 50 | 0.0 | 0.0 | 0.00 | 0.00 | 0.00 | 100 | 1021.7 |
| 20260906075955 | 62 | 71 | 0.0 | 0.0 | 0.00 | 0.00 | 0.00 | 100 | 1021.7 |
| 20260906075455 | 62 | 68 | 0.0 | 0.0 | 0.00 | 0.00 | 0.00 | 100 | 1021.7 |
| 20260906074955 | 63 | 39 | 0.0 | 0.0 | 0.00 | 0.00 | 0.00 | 100 | 1021.7 |
| 20260906074455 | 63 | 49 | 0.0 | 0.0 | 0.00 | 0.00 | 0.00 | 100 | 1021.7 |
| 20260906073955 | 63 | 60 | 0.0 | 0.0 | 0.00 | 0.00 | 0.00 | 100 | 1021.7 |
| 20260906073456 | 63 | 58 | 0.0 | 0.0 | 0.00 | 0.00 | 0.00 | 100 | 1021.7 |
| 20260906072956 | 63 | 44 | 0.0 | 0.0 | 0.00 | 0.00 | 0.00 | 100 | 1021.7 |
| 20260906072456 | 63 | 71 | 0.0 | 0.0 | 0.00 | 0.00 | 0.00 | 100 | 1021.7 |
| 20260906071955 | 63 | 78 | 0.0 | 0.0 | 0.00 | 0.00 | 0.00 | 100 | 1021.7 |
| 20260906071455 | 63 | 53 | 0.0 | 0.0 | 0.00 | 0.00 | 0.00 | 100 | 1021.7 |
| 20260906070956 | 63 | 12 | 0.0 | 0.0 | 0.00 | 0.00 | 0.00 | 100 | 1022.0 |
| 20260906070455 | 63 | 76 | 0.0 | 0.0 | 0.00 | 0.00 | 0.00 | 100 | 1022.0 |
| 20260906065955 | 63 | 49 | 0.0 | 0.0 | 0.00 | 0.00 | 0.00 | 100 | 1022.0 |
| 20260906065455 | 63 | 60 | 0.0 | 0.0 | 0.00 | 0.00 | 0.00 | 100 | 1022.0 |
| 20260906064956 | 63 | 55 | 0.0 | 0.0 | 0.00 | 0.00 | 0.00 | 100 | 1022.0 |
| 20260906064455 | 63 | 61 | 0.0 | 0.0 | 0.00 | 0.00 | 0.00 | 100 | 1022.0 |
| 20260906063955 | 63 | 58 | 0.0 | 0.0 | 0.00 | 0.00 | 0.00 | 100 | 1022.0 |
| 20260906063455 | 63 | 63 | 0.0 | 0.0 | 0.00 | 0.00 | 0.00 | 100 | 1022.0 |
| 20260906062955 | 63 | 61 | 0.0 | 0.0 | 0.00 | 0.00 | 0.00 | 100 | 1022.0 |
| 20260906062455 | 63 | 60 | 0.0 | 0.0 | 0.00 | 0.00 | 0.00 | 100 | 1022.0 |
| 20260906061955 | 63 | 51 | 0.0 | 0.0 | 0.00 | 0.00 | 0.00 | 100 | 1022.0 |
| 20260906061456 | 62 | 55 | 0.0 | 0.0 | 0.00 | 0.00 | 0.00 | 100 | 1022.0 |
| 20260906060955 | 62 | 61 | 0.0 | 0.0 | 0.00 | 0.00 | 0.00 | 100 | 1022.0 |
| 20260906060455 | 62 | 64 | 0.0 | 0.0 | 0.00 | 0.00 | 0.00 | 100 | 1022.0 |
| 20260906055955 | 62 | 64 | 0.0 | 0.0 | 0.00 | 0.00 | 0.00 | 100 | 1022.0 |
| 20260906055455 | 62 | 32 | 0.0 | 0.0 | 0.00 | 0.00 | 0.00 | 100 | 1022.0 |
| 20260906054958 | 62 | 25 | 0.0 | 0.0 | 0.00 | 0.00 | 0.00 | 100 | 1021.7 |
| 20260906054455 | 62 | 68 | 0.0 | 0.0 | 0.00 | 0.00 | 0.00 | 100 | 1021.7 |
| 20260906053955 | 63 | 68 | 0.0 | 0.0 | 0.00 | 0.00 | 0.00 | 100 | 1021.7 |
| 20260906053455 | 63 | 75 | 0.0 | 0.0 | 0.00 | 0.00 | 0.00 | 100 | 1021.7 |
| 20260906052955 | 63 | 73 | 0.0 | 0.0 | 0.00 | 0.00 | 0.00 | 100 | 1021.7 |
| 20260906052455 | 63 | 58 | 0.0 | 0.0 | 0.00 | 0.00 | 0.00 | 100 | 1021.7 |
| 20260906051955 | 63 | 68 | 0.0 | 0.0 | 0.00 | 0.00 | 0.00 | 100 | 1021.7 |
| 20260906051456 | 63 | 69 | 0.0 | 0.0 | 0.00 | 0.00 | 0.00 | 100 | 1021.7 |
| 20260906050955 | 63 | 51 | 0.0 | 0.0 | 0.00 | 0.00 | 0.00 | 100 | 1021.7 |
| 20260906050455 | 63 | 94 | 0.0 | 0.0 | 0.00 | 0.00 | 0.00 | 100 | 1021.7 |
| 20260906045955 | 63 | 88 | 0.0 | 0.0 | 0.00 | 0.00 | 0.00 | 100 | 1021.7 |
| 20260906045456 | 63 | 75 | 0.0 | 0.0 | 0.00 | 0.00 | 0.00 | 100 | 1021.3 |
| 20260906044955 | 63 | 74 | 0.0 | 0.0 | 0.00 | 0.00 | 0.00 | 100 | 1021.3 |
| 20260906044456 | 63 | 61 | 0.0 | 0.0 | 0.00 | 0.00 | 0.00 | 100 | 1021.7 |
| 20260906043956 | 63 | 50 | 0.0 | 0.0 | 0.00 | 0.00 | 0.00 | 100 | 1021.7 |
| 20260906043455 | 63 | 63 | 0.0 | 0.0 | 0.00 | 0.00 | 0.00 | 100 | 1021.3 |
| 20260906042955 | 63 | 108 | 0.0 | 0.0 | 0.00 | 0.00 | 0.00 | 100 | 1021.3 |
| 20260906042455 | 63 | 114 | 0.0 | 0.0 | 0.00 | 0.00 | 0.00 | 100 | 1021.3 |
| 20260906041955 | 63 | 95 | 0.0 | 0.0 | 0.00 | 0.00 | 0.00 | 100 | 1021.3 |
| 20260906041456 | 63 | 95 | 0.0 | 0.0 | 0.00 | 0.00 | 0.00 | 100 | 1021.3 |
| 20260906040955 | 63 | 92 | 0.0 | 0.0 | 0.00 | 0.00 | 0.00 | 100 | 1021.0 |
| 20260906040456 | 63 | 111 | 0.0 | 0.0 | 0.00 | 0.00 | 0.00 | 100 | 1021.0 |
| 20260906035955 | 63 | 128 | 0.0 | 0.0 | 0.00 | 0.00 | 0.00 | 100 | 1021.0 |
| 20260906035456 | 63 | 161 | 0.0 | 0.0 | 0.00 | 0.00 | 0.00 | 100 | 1021.0 |
| 20260906034955 | 63 | 129 | 0.0 | 0.0 | 0.00 | 0.00 | 0.00 | 100 | 1021.0 |
| 20260906034455 | 63 | 141 | 0.0 | 0.0 | 0.00 | 0.00 | 0.00 | 100 | 1021.0 |
| 20260906033955 | 63 | 203 | 0.0 | 0.0 | 0.00 | 0.00 | 0.00 | 100 | 1021.0 |
| 20260906033456 | 64 | 174 | 0.0 | 0.0 | 0.00 | 0.00 | 0.00 | 100 | 1020.7 |
| 20260906032956 | 64 | 190 | 0.0 | 0.0 | 0.00 | 0.00 | 0.00 | 100 | 1020.7 |
| 20260906032455 | 64 | 197 | 0.0 | 0.0 | 0.00 | 0.00 | 0.00 | 100 | 1020.7 |
| 20260906031955 | 64 | 127 | 0.0 | 0.0 | 0.00 | 0.00 | 0.00 | 100 | 1020.3 |
| 20260906031456 | 64 | 159 | 0.0 | 0.0 | 0.00 | 0.00 | 0.00 | 100 | 1020.3 |
| 20260906030955 | 64 | 140 | 0.0 | 0.0 | 0.00 | 0.00 | 0.00 | 100 | 1020.3 |
| 20260906030455 | 64 | 179 | 0.0 | 0.0 | 0.00 | 0.00 | 0.00 | 100 | 1020.3 |
| 20260906025955 | 65 | 202 | 0.0 | 0.0 | 0.00 | 0.00 | 0.00 | 100 | 1020.3 |
| 20260906025455 | 65 | 145 | 0.0 | 0.0 | 0.00 | 0.00 | 0.00 | 100 | 1020.3 |
| 20260906024956 | 65 | 47 | 0.0 | 0.0 | 0.00 | 0.00 | 0.00 | 100 | 1020.3 |
| 20260906024455 | 65 | 114 | 0.0 | 0.0 | 0.00 | 0.00 | 0.00 | 100 | 1020.3 |
| 20260906023955 | 66 | 184 | 0.0 | 0.0 | 0.00 | 0.00 | 0.00 | 100 | 1020.3 |
| 20260906023455 | 66 | 5 | 0.0 | 0.0 | 0.00 | 0.00 | 0.00 | 100 | 1020.0 |
| 20260906022955 | 66 | 102 | 0.0 | 1.7 | 0.00 | 0.00 | 0.00 | 100 | 1020.0 |
| 20260906022455 | 66 | 118 | 0.0 | 1.7 | 0.00 | 0.00 | 0.00 | 100 | 1020.0 |
| 20260906021955 | 66 | 61 | 0.0 | 0.0 | 0.00 | 0.00 | 0.00 | 100 | 1020.0 |
| 20260906021455 | 66 | 113 | 0.0 | 1.7 | 0.00 | 0.00 | 0.00 | 100 | 1020.0 |
| 20260906020955 | 66 | 92 | 0.0 | 1.7 | 0.00 | 0.00 | 0.00 | 100 | 1020.0 |
| 20260906020011 | 66 | 71 | 0.0 | 1.7 | 0.00 | 0.00 | 0.00 | 100 | 1019.6 |
| 20260906015455 | 66 | 109 | 1.7 | 2.6 | 0.00 | 0.00 | 0.00 | 100 | 1019.6 |
| 20260906014955 | 66 | 139 | 0.0 | 0.0 | 0.00 | 0.00 | 0.00 | 100 | 1019.6 |
| 20260906014456 | 66 | 78 | 0.0 | 0.0 | 0.00 | 0.00 | 0.00 | 100 | 1019.6 |
| 20260906013956 | 66 | 106 | 0.0 | 0.0 | 0.00 | 0.00 | 0.00 | 100 | 1019.6 |
| 20260906013457 | 66 | 88 | 0.0 | 0.0 | 0.00 | 0.00 | 0.00 | 100 | 1019.6 |
| 20260906012955 | 66 | 112 | 0.0 | 0.0 | 0.00 | 0.00 | 0.00 | 100 | 1019.6 |
| 20260906012455 | 67 | 71 | 0.0 | 0.0 | 0.00 | 0.00 | 0.00 | 100 | 1019.6 |
| 20260906011958 | 67 | 78 | 0.0 | 0.0 | 0.00 | 0.00 | 0.00 | 100 | 1019.6 |
| 20260906011455 | 67 | 51 | 0.0 | 1.7 | 0.00 | 0.00 | 0.00 | 100 | 1019.6 |
| 20260906010956 | 67 | 96 | 0.0 | 0.0 | 0.00 | 0.00 | 0.00 | 100 | 1019.3 |
| 20260906010458 | 67 | 108 | 0.0 | 0.0 | 0.00 | 0.00 | 0.00 | 100 | 1019.3 |
| 20260906005955 | 67 | 103 | 0.0 | 0.0 | 0.00 | 0.00 | 0.00 | 100 | 1019.3 |
| 20260906005456 | 68 | 90 | 0.0 | 0.0 | 0.00 | 0.00 | 0.00 | 99 | 1019.3 |
| 20260906004955 | 68 | 91 | 0.0 | 0.0 | 0.00 | 0.00 | 0.00 | 98 | 1019.3 |
| 20260906004456 | 69 | 83 | 0.0 | 0.0 | 0.00 | 0.00 | 0.00 | 97 | 1019.3 |
| 20260906003955 | 69 | 71 | 0.0 | 0.0 | 0.00 | 0.00 | 0.00 | 97 | 1019.3 |
| 20260906003455 | 70 | 51 | 0.0 | 0.0 | 0.00 | 0.00 | 0.00 | 96 | 1019.3 |
| 20260906002955 | 71 | 101 | 0.0 | 0.0 | 0.00 | 0.00 | 0.00 | 95 | 1019.3 |
| 20260906002455 | 72 | 109 | 0.0 | 0.0 | 0.00 | 0.00 | 0.00 | 94 | 1019.3 |
| 20260906001957 | 73 | 110 | 0.0 | 0.0 | 0.00 | 0.00 | 0.00 | 93 | 1019.3 |
| 20260906001456 | 73 | 73 | 0.0 | 0.0 | 0.00 | 0.00 | 0.00 | 90 | 1019.3 |
| 20260906000955 | 74 | 56 | 0.0 | 0.0 | 0.00 | 0.00 | 0.00 | 89 | 1019.3 |
| 20260906000455 | 75 | 63 | 0.0 | 0.0 | 0.00 | 0.00 | 0.00 | 87 | 1019.3 |
| 20260905235955 | 75 | 70 | 0.0 | 0.0 | 0.00 | 0.00 | 0.00 | 87 | 1019.3 |
| 20260905235455 | 76 | 42 | 0.0 | 0.0 | 0.00 | 0.00 | 0.00 | 85 | 1019.3 |
| 20260905234955 | 76 | 93 | 0.0 | 0.0 | 0.00 | 0.00 | 0.00 | 85 | 1019.3 |
| 20260905234455 | 76 | 120 | 0.0 | 0.0 | 0.00 | 0.00 | 0.00 | 83 | 1019.3 |
| 20260905233955 | 77 | 132 | 0.0 | 0.0 | 0.00 | 0.00 | 0.00 | 83 | 1019.3 |
| 20260905233455 | 77 | 135 | 0.0 | 0.0 | 0.00 | 0.00 | 0.00 | 81 | 1019.3 |
| 20260905232955 | 78 | 104 | 0.0 | 0.0 | 0.00 | 0.00 | 0.00 | 80 | 1019.3 |
| 20260905232455 | 78 | 63 | 0.0 | 0.0 | 0.00 | 0.00 | 0.00 | 80 | 1019.3 |
| 20260905231955 | 78 | 41 | 0.0 | 0.0 | 0.00 | 0.00 | 0.00 | 81 | 1019.3 |
| 20260905231455 | 78 | 65 | 0.0 | 0.0 | 0.00 | 0.00 | 0.00 | 77 | 1019.3 |
| 20260905230955 | 79 | 54 | 0.0 | 0.0 | 0.00 | 0.00 | 0.00 | 77 | 1019.3 |
| 20260905230455 | 79 | 42 | 0.0 | 0.0 | 0.00 | 0.00 | 0.00 | 78 | 1019.3 |
| 20260905225955 | 79 | 60 | 0.0 | 0.0 | 0.00 | 0.00 | 0.00 | 78 | 1019.6 |
| 20260905225455 | 79 | 42 | 0.0 | 1.7 | 0.00 | 0.00 | 0.00 | 77 | 1019.6 |
| 20260905224955 | 79 | 141 | 0.0 | 2.6 | 0.00 | 0.00 | 0.00 | 77 | 1019.6 |
| 20260905224456 | 79 | 54 | 0.9 | 2.6 | 0.00 | 0.00 | 0.00 | 76 | 1019.6 |
| 20260905223955 | 79 | 43 | 0.0 | 3.5 | 0.00 | 0.00 | 0.00 | 76 | 1019.6 |
| 20260905223456 | 80 | 38 | 0.9 | 3.5 | 0.00 | 0.00 | 0.00 | 76 | 1019.6 |
| 20260905222955 | 80 | 345 | 0.9 | 1.7 | 0.00 | 0.00 | 0.00 | 77 | 1019.6 |
| 20260905222455 | 79 | 339 | 0.0 | 0.0 | 0.00 | 0.00 | 0.00 | 76 | 1019.6 |
| 20260905221955 | 79 | 31 | 0.0 | 0.0 | 0.00 | 0.00 | 0.00 | 78 | 1019.6 |
| 20260905221455 | 79 | 100 | 0.0 | 0.0 | 0.00 | 0.00 | 0.00 | 77 | 1019.6 |
| 20260905220955 | 79 | 55 | 0.0 | 0.0 | 0.00 | 0.00 | 0.00 | 78 | 1019.6 |
| 20260905220455 | 79 | 54 | 0.0 | 0.0 | 0.00 | 0.00 | 0.00 | 77 | 1019.6 |
| 20260905215955 | 79 | 45 | 0.0 | 0.0 | 0.00 | 0.00 | 0.00 | 77 | 1019.6 |
| 20260905215455 | 79 | 81 | 0.0 | 0.0 | 0.00 | 0.00 | 0.00 | 78 | 1019.6 |
| 20260905214955 | 79 | 39 | 0.0 | 0.0 | 0.00 | 0.00 | 0.00 | 77 | 1019.6 |
| 20260905214456 | 79 | 35 | 0.0 | 0.0 | 0.00 | 0.00 | 0.00 | 78 | 1019.6 |
| 20260905213955 | 79 | 75 | 0.0 | 0.0 | 0.00 | 0.00 | 0.00 | 77 | 1019.6 |
| 20260905213455 | 80 | 37 | 0.0 | 0.0 | 0.00 | 0.00 | 0.00 | 76 | 1019.6 |
| 20260905212957 | 80 | 54 | 0.0 | 0.0 | 0.00 | 0.00 | 0.00 | 76 | 1020.0 |
| 20260905212456 | 80 | 38 | 0.0 | 0.0 | 0.00 | 0.00 | 0.00 | 75 | 1019.6 |
| 20260905211955 | 79 | 51 | 0.0 | 0.0 | 0.00 | 0.00 | 0.00 | 73 | 1019.6 |
| 20260905211455 | 79 | 41 | 0.0 | 0.0 | 0.00 | 0.00 | 0.00 | 79 | 1020.0 |
| 20260905210955 | 78 | 181 | 0.0 | 0.0 | 0.00 | 0.00 | 0.00 | 83 | 1020.0 |
| 20260905210458 | 77 | 92 | 0.0 | 0.0 | 0.00 | 0.00 | 0.00 | 82 | 1020.0 |
| 20260905205955 | 76 | 128 | 0.0 | 0.0 | 0.00 | 0.00 | 0.00 | 83 | 1020.0 |
| 20260905205455 | 76 | 63 | 0.0 | 0.0 | 0.00 | 0.00 | 0.00 | 84 | 1020.0 |
| 20260905204955 | 76 | 43 | 0.0 | 0.0 | 0.00 | 0.00 | 0.00 | 83 | 1020.3 |
| 20260905204455 | 76 | 45 | 0.0 | 0.0 | 0.00 | 0.00 | 0.00 | 84 | 1020.3 |
| 20260905203956 | 76 | 100 | 0.0 | 0.0 | 0.00 | 0.00 | 0.00 | 83 | 1020.3 |
| 20260905203456 | 76 | 54 | 0.0 | 0.0 | 0.00 | 0.00 | 0.00 | 83 | 1020.3 |
| 20260905202956 | 76 | 56 | 0.0 | 0.0 | 0.00 | 0.00 | 0.00 | 85 | 1020.3 |
| 20260905202456 | 75 | 111 | 0.0 | 0.0 | 0.00 | 0.00 | 0.00 | 86 | 1020.3 |
| 20260905201958 | 75 | 94 | 0.0 | 0.0 | 0.00 | 0.00 | 0.00 | 87 | 1020.3 |
| 20260905201456 | 75 | 28 | 0.0 | 0.0 | 0.00 | 0.00 | 0.00 | 87 | 1020.3 |
| 20260905200956 | 75 | 104 | 0.0 | 0.0 | 0.00 | 0.00 | 0.00 | 88 | 1020.3 |
| 20260905200456 | 74 | 62 | 0.0 | 0.0 | 0.00 | 0.00 | 0.00 | 88 | 1020.3 |
| 20260905195955 | 74 | 35 | 0.0 | 0.0 | 0.00 | 0.00 | 0.00 | 88 | 1020.3 |
| 20260905195455 | 74 | 51 | 0.0 | 0.0 | 0.00 | 0.00 | 0.00 | 90 | 1020.3 |
| 20260905194957 | 74 | 37 | 0.0 | 0.0 | 0.00 | 0.00 | 0.00 | 89 | 1020.3 |
| 20260905194456 | 74 | 41 | 0.0 | 0.0 | 0.00 | 0.00 | 0.00 | 86 | 1020.3 |
| 20260905193956 | 75 | 109 | 0.0 | 0.0 | 0.00 | 0.00 | 0.00 | 88 | 1020.3 |
| 20260905193456 | 75 | 42 | 0.0 | 0.0 | 0.00 | 0.00 | 0.00 | 87 | 1020.3 |
| 20260905192955 | 75 | 42 | 0.0 | 0.0 | 0.00 | 0.00 | 0.00 | 88 | 1020.0 |
| 20260905192455 | 75 | 43 | 0.0 | 4.3 | 0.00 | 0.00 | 0.00 | 88 | 1020.3 |
| 20260905191955 | 75 | 57 | 3.5 | 6.1 | 0.00 | 0.00 | 0.00 | 86 | 1020.3 |
| 20260905191456 | 75 | 40 | 3.5 | 6.1 | 0.00 | 0.00 | 0.00 | 87 | 1020.3 |
| 20260905190955 | 75 | 101 | 0.0 | 0.0 | 0.00 | 0.00 | 0.00 | 87 | 1020.3 |
| 20260905190455 | 75 | 46 | 0.0 | 4.3 | 0.00 | 0.00 | 0.00 | 87 | 1020.3 |
| 20260905185956 | 75 | 103 | 1.7 | 6.1 | 0.00 | 0.00 | 0.00 | 88 | 1020.3 |
| 20260905185456 | 76 | 94 | 1.7 | 6.1 | 0.00 | 0.00 | 0.00 | 86 | 1020.3 |
| 20260905184955 | 76 | 90 | 0.0 | 0.0 | 0.00 | 0.00 | 0.00 | 85 | 1020.3 |
| 20260905184455 | 76 | 99 | 0.0 | 0.0 | 0.00 | 0.00 | 0.00 | 87 | 1020.3 |
| 20260905183955 | 76 | 26 | 0.0 | 0.0 | 0.00 | 0.00 | 0.00 | 85 | 1020.3 |
| 20260905183456 | 76 | 18 | 0.0 | 0.0 | 0.00 | 0.00 | 0.00 | 85 | 1020.3 |
| 20260905182955 | 76 | 117 | 0.0 | 3.5 | 0.00 | 0.00 | 0.00 | 84 | 1020.3 |
| 20260905182455 | 77 | 63 | 0.9 | 4.3 | 0.00 | 0.00 | 0.00 | 85 | 1020.3 |
| 20260905181955 | 77 | 44 | 0.0 | 4.3 | 0.00 | 0.00 | 0.00 | 84 | 1020.3 |
| 20260905181455 | 77 | 61 | 0.0 | 1.7 | 0.00 | 0.00 | 0.00 | 85 | 1020.3 |
| 20260905180955 | 77 | 94 | 0.0 | 0.0 | 0.00 | 0.00 | 0.00 | 84 | 1020.3 |
| 20260905180456 | 77 | 14 | 0.0 | 0.0 | 0.00 | 0.00 | 0.00 | 85 | 1020.3 |
| 20260905175956 | 77 | 60 | 0.0 | 0.0 | 0.00 | 0.00 | 0.00 | 85 | 1020.3 |
| 20260905175455 | 77 | 86 | 0.0 | 0.0 | 0.00 | 0.00 | 0.00 | 85 | 1020.3 |
| 20260905174955 | 78 | 27 | 0.0 | 0.0 | 0.00 | 0.00 | 0.00 | 83 | 1020.3 |
| 20260905174456 | 78 | 113 | 0.9 | 2.6 | 0.00 | 0.00 | 0.00 | 86 | 1020.3 |
| 20260905173955 | 76 | 57 | 0.9 | 2.6 | 0.00 | 0.00 | 0.00 | 86 | 1020.3 |
| 20260905173456 | 75 | 72 | 0.9 | 3.5 | 0.00 | 0.00 | 0.00 | 88 | 1020.7 |
| 20260905172956 | 75 | 53 | 0.9 | 3.5 | 0.00 | 0.00 | 0.00 | 91 | 1020.7 |
| 20260905172455 | 74 | 129 | 0.0 | 6.1 | 0.00 | 0.00 | 0.00 | 90 | 1020.7 |
| 20260905171958 | 74 | 42 | 0.9 | 6.1 | 0.00 | 0.00 | 0.00 | 90 | 1020.7 |
| 20260905171455 | 74 | 65 | 0.0 | 4.3 | 0.00 | 0.00 | 0.00 | 92 | 1020.7 |
| 20260905170956 | 73 | 58 | 0.9 | 4.3 | 0.00 | 0.00 | 0.00 | 92 | 1021.0 |
| 20260905170456 | 73 | 57 | 0.0 | 6.1 | 0.00 | 0.00 | 0.00 | 91 | 1021.0 |
| 20260905165957 | 73 | 43 | 3.5 | 6.1 | 0.00 | 0.00 | 0.00 | 92 | 1021.0 |
| 20260905165455 | 73 | 47 | 0.0 | 0.0 | 0.00 | 0.00 | 0.00 | 93 | 1021.0 |
| 20260905164955 | 72 | 56 | 0.0 | 0.9 | 0.00 | 0.00 | 0.00 | 93 | 1021.0 |
| 20260905164455 | 72 | 58 | 0.0 | 2.6 | 0.00 | 0.00 | 0.00 | 93 | 1021.0 |
| 20260905163955 | 72 | 352 | 0.9 | 4.3 | 0.00 | 0.00 | 0.00 | 92 | 1021.0 |
| 20260905163457 | 72 | 53 | 1.7 | 5.2 | 0.00 | 0.00 | 0.00 | 95 | 1020.7 |
| 20260905162956 | 72 | 82 | 1.7 | 3.5 | 0.00 | 0.00 | 0.00 | 94 | 1020.7 |
| 20260905162455 | 72 | 15 | 0.0 | 5.2 | 0.00 | 0.00 | 0.00 | 96 | 1021.0 |
| 20260905161955 | 71 | 141 | 0.9 | 5.2 | 0.00 | 0.00 | 0.00 | 96 | 1021.0 |
| 20260905161455 | 71 | 39 | 2.6 | 5.2 | 0.00 | 0.00 | 0.00 | 95 | 1021.0 |
| 20260905160956 | 71 | 112 | 2.6 | 5.2 | 0.00 | 0.00 | 0.00 | 97 | 1021.0 |
| 20260905160456 | 71 | 105 | 2.6 | 7.0 | 0.00 | 0.00 | 0.00 | 96 | 1021.0 |
| 20260905155956 | 71 | 58 | 3.5 | 7.0 | 0.00 | 0.00 | 0.00 | 100 | 1021.0 |
| 20260905155455 | 70 | 55 | 2.6 | 5.2 | 0.00 | 0.00 | 0.00 | 100 | 1020.7 |
| 20260905154955 | 69 | 51 | 4.3 | 5.2 | 0.00 | 0.00 | 0.00 | 100 | 1020.7 |
| 20260905154455 | 69 | 54 | 5.2 | 7.0 | 0.00 | 0.00 | 0.00 | 100 | 1020.7 |
| 20260905153956 | 69 | 35 | 2.6 | 5.2 | 0.00 | 0.00 | 0.00 | 100 | 1020.7 |
| 20260905153455 | 69 | 133 | 1.7 | 5.2 | 0.00 | 0.00 | 0.00 | 100 | 1020.7 |